Liverpool, United Kingdom

3:57 PM GMT on December 14, 2017 (GMT +0000)
Liverpool

Weather History for EGGP - February, 2013

Change the Weather History Date:

Thursday, February 7, 2013

  Actual Average Record
Temperature  
Mean Temperature 38 °F -  
Max Temperature 41 °F 46 °F 55 °F (2002)
Min Temperature 35 °F 36 °F 24 °F (2007)
Degree Days  
Heating Degree Days 27    
Moisture  
Dew Point 35 °F    
Average Humidity 87    
Maximum Humidity 100    
Minimum Humidity 75    
Precipitation  
Precipitation 0.00 in - - ()
Sea Level Pressure  
Sea Level Pressure 30.07 in    
Wind  
Wind Speed 8 mph ()    
Max Wind Speed 14 mph    
Max Gust Speed 18 mph    
Visibility 6.1 miles    
Events Rain    
Averages and records for this station are not official NWS values.
T = Trace of Precipitation, MM = Missing Value Source: Averaged Metar Reports

Daily Weather History Graph

Daily Weather History Graph

Search for Another Location

Airport or City:

Trip Planner

Search our weather history database for the weather conditions in past years. The results will help you decide how hot, cold, wet, or windy it might be!

Date:

Astronomy

Feb. 07, 2013 Rise Set
Actual Time 7:45 AM GMT 5:06 PM GMT
Civil Twilight 7:08 AM GMT 5:43 PM GMT
Nautical Twilight 6:26 AM GMT 6:25 PM GMT
Astronomical Twilight 5:46 AM GMT 7:05 PM GMT
Moon 5:27 AM GMT (2/7) 2:00 PM GMT (2/7)
Length of Visible Light 10h 35m
Length of Day
9h 21m
Waning Crescent, 10% of the Moon is Illuminated
Feb 7
Waning Crescent
Feb 10
New
Feb 17
First Quarter
Feb 25
Full
Mar 4
Last Quarter

Hourly Weather History & Observations

Time (GMT) Temp. Windchill Dew Point Humidity Pressure Visibility Wind Dir Wind Speed Gust Speed Precip Events Conditions
12:20 AM 39.2 °F 31.2 °F 32.0 °F 75% 30.15 in - NW 13.8 mph - N/A   Clear
12:50 AM 39.2 °F 32.0 °F 32.0 °F 75% 30.15 in - NW 11.5 mph - N/A   Clear
1:20 AM 39.2 °F 32.5 °F 32.0 °F 75% 30.15 in - NW 10.4 mph - N/A   Clear
1:50 AM 37.4 °F 30.8 °F 30.2 °F 75% 30.15 in - WNW 9.2 mph - N/A   Clear
2:20 AM 37.4 °F 30.3 °F 30.2 °F 75% 30.15 in - NW 10.4 mph - N/A   Clear
2:50 AM 37.4 °F 31.4 °F 32.0 °F 81% 30.12 in - NNW 8.1 mph - N/A   Clear
3:20 AM 35.6 °F 29.9 °F 30.2 °F 81% 30.12 in - NW 6.9 mph - N/A   Clear
3:50 AM 37.4 °F 32.1 °F 32.0 °F 81% 30.12 in - NW 6.9 mph - N/A   Clear
4:20 AM 37.4 °F 33.8 °F 32.0 °F 81% 30.12 in - NW 4.6 mph - N/A   Clear
4:50 AM 37.4 °F 32.1 °F 32.0 °F 81% 30.12 in - NW 6.9 mph - N/A   Clear
5:20 AM 35.6 °F 30.7 °F 33.8 °F 93% 30.12 in - West 5.8 mph - N/A   Clear
5:50 AM 35.6 °F 29.9 °F 32.0 °F 87% 30.12 in - WNW 6.9 mph - N/A   Clear
6:20 AM 39.2 °F 33.0 °F 33.8 °F 81% 30.12 in - NW 9.2 mph - N/A   Clear
6:50 AM 37.4 °F 32.1 °F 33.8 °F 87% 30.12 in - NW 6.9 mph - N/A   Clear
7:20 AM 37.4 °F 32.1 °F 33.8 °F 87% 30.12 in - Variable 6.9 mph - N/A   Clear
7:50 AM 37.4 °F 31.4 °F 32.0 °F 81% 30.09 in - NW 8.1 mph - N/A   Clear
8:20 AM 35.6 °F 31.7 °F 32.0 °F 87% 30.09 in 6.2 mi NW 4.6 mph - N/A   Partly Cloudy
8:50 AM 35.6 °F 29.9 °F 33.8 °F 93% 30.09 in 6.2 mi West 6.9 mph - N/A   Partly Cloudy
9:20 AM 39.2 °F 34.2 °F 33.8 °F 81% 30.09 in 6.2 mi West 6.9 mph - N/A   Partly Cloudy
9:50 AM 41.0 °F 37.1 °F 35.6 °F 81% 30.09 in 6.2 mi West 5.8 mph - N/A   Partly Cloudy
10:20 AM 41.0 °F 33.5 °F 35.6 °F 81% 30.09 in 6.2 mi West 13.8 mph - N/A   Partly Cloudy
10:50 AM 41.0 °F 35.8 °F 35.6 °F 81% 30.06 in 6.2 mi WNW 8.1 mph - N/A   Partly Cloudy
11:20 AM 41.0 °F 33.9 °F 35.6 °F 81% 30.06 in 6.2 mi NW 12.7 mph - N/A   Scattered Clouds
11:50 AM 39.2 °F 33.0 °F 37.4 °F 93% 30.06 in 4.3 mi West 9.2 mph - N/A Rain Light Rain Showers
12:20 PM 41.0 °F 37.1 °F 37.4 °F 87% 30.04 in 6.2 mi WSW 5.8 mph - N/A   Scattered Clouds
12:50 PM 41.0 °F 38.0 °F 37.4 °F 87% 30.04 in 6.2 mi SW 4.6 mph - N/A   Mostly Cloudy
1:20 PM 39.2 °F 37.0 °F 37.4 °F 93% 30.04 in 6.2 mi Variable 3.5 mph - N/A   Mostly Cloudy
1:50 PM 41.0 °F - 39.2 °F 93% 30.01 in 6.2 mi Variable 1.2 mph - N/A   Mostly Cloudy
2:20 PM 41.0 °F 39.0 °F 39.2 °F 93% 30.01 in 6.2 mi Variable 3.5 mph - N/A   Mostly Cloudy
2:50 PM 41.0 °F 39.0 °F 39.2 °F 93% 30.01 in 6.2 mi Variable 3.5 mph - N/A   Mostly Cloudy
3:20 PM 39.2 °F 32.5 °F 37.4 °F 93% 30.01 in 6.2 mi West 10.4 mph - N/A   Mostly Cloudy
3:50 PM 39.2 °F 32.5 °F 37.4 °F 93% 30.01 in 6.2 mi WNW 10.4 mph - N/A Rain Light Rain Showers
4:20 PM 39.2 °F 33.0 °F 37.4 °F 93% 29.98 in 5.6 mi NW 9.2 mph - N/A Rain Light Rain Showers
4:50 PM 39.2 °F 34.2 °F 37.4 °F 93% 30.01 in 6.2 mi NW 6.9 mph - N/A Rain Light Rain Showers
5:20 PM 39.2 °F 33.6 °F 37.4 °F 93% 30.01 in 6.2 mi NNW 8.1 mph - N/A Rain Light Rain Showers
5:50 PM 39.2 °F 34.2 °F 35.6 °F 87% 30.01 in 6.2 mi NNW 6.9 mph 18.4 mph N/A   Mostly Cloudy
6:20 PM 37.4 °F 32.8 °F 35.6 °F 93% 30.04 in 6.2 mi NNW 5.8 mph - N/A   Scattered Clouds
6:50 PM 39.2 °F 34.2 °F 37.4 °F 93% 30.04 in 6.2 mi NNW 6.9 mph - N/A   Scattered Clouds
7:20 PM 37.4 °F 32.1 °F 35.6 °F 93% 30.04 in 6.2 mi NNW 6.9 mph - N/A   Partly Cloudy
7:50 PM 39.2 °F 34.2 °F 37.4 °F 93% 30.04 in 6.2 mi NNW 6.9 mph - N/A   Scattered Clouds
8:20 PM 37.4 °F 32.8 °F 35.6 °F 93% 30.06 in 6.2 mi NNW 5.8 mph - N/A   Partly Cloudy
8:50 PM 37.4 °F 32.1 °F 35.6 °F 93% 30.06 in 6.2 mi NW 6.9 mph - N/A   Scattered Clouds
9:20 PM 37.4 °F 32.8 °F 37.4 °F 100% 30.06 in 6.2 mi NW 5.8 mph - N/A   Scattered Clouds
9:50 PM 39.2 °F 33.6 °F 37.4 °F 93% 30.06 in 6.2 mi NNW 8.1 mph - N/A   Scattered Clouds
10:20 PM 39.2 °F 34.2 °F 37.4 °F 93% 30.06 in 6.2 mi NNW 6.9 mph - N/A   Scattered Clouds
10:50 PM 37.4 °F 32.1 °F 35.6 °F 93% 30.06 in 6.2 mi North 6.9 mph - N/A   Scattered Clouds
11:20 PM 37.4 °F 32.8 °F 35.6 °F 93% 30.06 in 6.2 mi NW 5.8 mph - N/A   Partly Cloudy
11:50 PM 37.4 °F 33.8 °F 35.6 °F 93% 30.06 in 6.2 mi NW 4.6 mph - N/A   Partly Cloudy